Regional Weather Roundup
Issued by NWS

Home | Current Version | Previous Version | Text Only | Print | Product List | Glossary On
Versions: 1 2 3 4 5 6 7 8 9 10 11 12 13 14 15 16 17 18 19 20 21 22 23 24 25 26 27 28 29 30 31 32 33 34 35 36 37 38 39 40 41 42 43 44 45 46 47 48 49 50
000
ASUS43 KDMX 090606
RWRIA

WEATHER ROUNDUP FOR IOWA
NATIONAL WEATHER SERVICE DES MOINES IA
1200 AM CST FRI DEC 09 2016

NOTE: "FAIR" INDICATES FEW OR NO CLOUDS BELOW 12,000 FEET WITH NO
SIGNIFICANT WEATHER AND/OR OBSTRUCTIONS TO VISIBILITY.

* - THESE STATIONS ARE NOT NWS STATIONS...THUS NOT UNDER NWS
QUALITY CONTROL.  THEY ALSO DO NOT REPORT WEATHER SUCH
AS PRECIPITATION OR FOG.

IAZ001>003-012>014-020>022-031>034-043>046-090700-
   NORTHWEST IOWA

CITY           SKY/WX    TMP DP  RH WIND       PRES   REMARKS
CARROLL *      CLEAR     12   9  85 NW13      30.60R WCI  -3
CHEROKEE *     CLEAR     10   6  86 NW5       30.60S WCI   1
DENISON *      CLEAR     10   7  85 NW12      30.59F WCI  -4
LE MARS *      CLEAR      9   3  78 NW8       30.64R WCI  -4
ORANGE CITY *  CLEAR      5   3  92 W3        30.59R
SHELDON *      CLEAR      7   5  92 NW7       30.57R WCI  -5
SIOUX CITY     CLEAR     11   5  77 NW10      30.64S WCI  -3
6HR MIN TEMP:  11; 6HR MAX TEMP:  20;

SPENCER        CLEAR      7   4  87 W15       30.57F WCI -10
6HR MIN TEMP:   7; 6HR MAX TEMP:  15;

STORM LAKE *   CLEAR      9   5  85 NW8       30.57S WCI  -4
$$

IAZ055>058-069>071-079>083-090>094-090700-
   SOUTHWEST IOWA

CITY           SKY/WX    TMP DP  RH WIND       PRES   REMARKS
ATLANTIC *     CLEAR     14   9  79 NW12      30.61S WCI   0
AUDUBON *      CLEAR     12   7  79 NW6       30.59S WCI   3
CLARINDA *     CLEAR     14   9  79 CALM      30.66R
COUNCIL BLFS * CLEAR     12   7  79 N5        30.63R WCI   4
CRESTON *      CLEAR     14   7  73 NW10      30.60S WCI   1
HARLAN  *      CLEAR     12   7  79 N6        30.65S WCI   3
LAMONI         CLEAR     12   7  80 NW9       30.59S WCI   0
6HR MIN TEMP:  11; 6HR MAX TEMP:  18;

RED OAK *      CLEAR     14   9  79 NW10      30.64R WCI   1
SHENANDOAH *   CLEAR     14   7  73 CALM      30.66S
$$

IAZ047>049-059>061-072>074-084-090700-
   CENTRAL IOWA

CITY           SKY/WX    TMP DP  RH WIND       PRES   REMARKS
AMES           FLURRIES  17  11  77 NW14      30.58R WCI   3
6HR MIN TEMP:  17; 6HR MAX TEMP:  22; 6HR PCP: TRACE;

ANKENY *       MOCLDY    16   9  73 NW14      30.60S WCI   1
BOONE *        CLOUDY    14   7  73 NW12G17   30.56F WCI   0
CHARITON *     CLEAR     14   9  79 NW9       30.58S WCI   2
DES MOINES     PTCLDY    16   8  71 NW13      30.59S WCI   2
6HR MIN TEMP:  16; 6HR MAX TEMP:  22;

GRINNELL*      FLURRIES  19  13  77 NW14      30.55S WCI   5
KNOXVILLE *    MOCLDY    16   9  73 NW10      30.57R WCI   3
MARSHALLTOWN   CLOUDY    18  12  77 NW14      30.55R WCI   4
6HR MIN TEMP:  18; 6HR MAX TEMP:  22; 6HR PCP: TRACE;

NEWTON *       CLOUDY    19  12  73 NW14      30.55S WCI   6
PELLA *        MOCLDY    19  12  73 NW13G18   30.58S WCI   6
PERRY *          N/A     14  10  86 NW8       30.59F WCI   3
$$

IAZ004>006-015-016-023>025-035-036-090700-
   NORTH CENTRAL IOWA

CITY           SKY/WX    TMP DP  RH WIND       PRES   REMARKS
ALGONA *       FLURRIES  16  10  79 NW13      30.55R WCI   2
CLARION *      CLOUDY    14   9  79 N14G22    30.56R WCI  -1
ESTHERVILLE    CLOUDY    10   6  84 NW12      30.55S WCI  -5
6HR MIN TEMP:  10; 6HR MAX TEMP:  16; 6HR PCP: TRACE;

FORT DODGE *   CLOUDY    12   5  73 NW9       30.58S WCI   0
MASON CITY     CLOUDY    14   8  77 NW14      30.54S WCI  -1
6HR MIN TEMP:  14; 6HR MAX TEMP:  18; 6HR PCP: TRACE;

FOREST CITY *  CLOUDY    14  10  85 NW12      30.53R WCI   0
WEBSTER CITY * FLURRIES  16  10  79 NW14      30.55S WCI   1
IOWA FALLS *   FLURRIES  17  11  77 NW15      30.55R WCI   3
$$

IAZ007>011-017>019-026>030-037>042-050>054-066-090700-
   NORTHEAST IOWA

CITY           SKY/WX    TMP DP  RH WIND       PRES   REMARKS
CEDAR RAPIDS   CLOUDY    19  14  81 NW13      30.52R WCI   6
6HR MIN TEMP:  19; 6HR MAX TEMP:  21; 6HR PCP: TRACE;

CHARLES CITY * CLOUDY    16  10  79 NW12      30.51S WCI   3
CLINTON *      CLOUDY    20  15  81 W18       30.49S WCI   5
DECORAH *      CLOUDY    18  14  86 NW9G15    30.46S WCI   6
DUBUQUE        CLOUDY    18  12  77 W14       30.46S WCI   4
6HR MIN TEMP:  18; 6HR MAX TEMP:  20;

MONTICELLO *   CLOUDY    18  10  73 W10       30.50S WCI   6
OELWEIN *      CLOUDY    16  12  86 W14       30.50S WCI   1
WATERLOO       CLOUDY    17   9  70 NW10      30.53S WCI   5
6HR MIN TEMP:  17; 6HR MAX TEMP:  21; 6HR PCP: TRACE;

$$

IAZ064-065-067-068-078-090700-
   EAST CENTRAL IOWA

CITY           SKY/WX    TMP DP  RH WIND       PRES   REMARKS
DAVENPORT      CLOUDY    21  13  71 NW14      30.51R WCI   8
6HR MIN TEMP:  21; 6HR MAX TEMP:  22; 6HR PCP: TRACE;

IOWA CITY      CLOUDY    21  12  68 NW14G21   30.55F WCI   8
6HR MIN TEMP:  21; 6HR MAX TEMP:  24; 6HR PCP: TRACE;

MUSCATINE *    CLOUDY    23  12  63 NW16      30.55S WCI  10
QUAD CITIES    CLOUDY    23  11  60 W14G20    30.52R WCI  11
6HR MIN TEMP:  22; 6HR MAX TEMP:  23; 6HR PCP: TRACE;

$$

IAZ062-063-075>077-085>089-095>099-090700-
   SOUTHEAST IOWA

CITY           SKY/WX    TMP DP  RH WIND       PRES   REMARKS
BURLINGTON     CLOUDY    22  14  71 NW10      30.53F WCI  11
6HR MIN TEMP:  21; 6HR MAX TEMP:  23;

FAIRFIELD *    CLOUDY    21  12  68 NW8       30.55S WCI  12
FORT MADISON * CLOUDY    21  14  73 W10       30.55F WCI  10
KEOKUK *       CLOUDY    19  14  79 W7        30.55F WCI  10
OSKALOOSA *    FLURRIES  20  13  73 NW13      30.56S WCI   8
CENTERVILLE *    N/A     14   9  79 W8        30.59S WCI   3
WASHINGTON *   FLURRIES  21  16  79 NW13      30.55F WCI   9
$$

ABBREVIATIONS USED IN REMARKS
   TC - TEMPERATURES IN CELSIUS
  WCI - WIND CHILL INDEX
   HX - HEAT INDEX
  VSB - VISIBILITY
$$




USA.gov is the U.S. government's official web portal to all federal, state and local government web resources and services.